Location: Albany
(35.0170°S, 117.8920°E)
Time: 17:32:41
(UTC+08:00)

Transit 2A - Pass Details

Date: 27 January 2021
Orbit: 601 x 958 km, 66.7° (Epoch: 02 March)

Event Time Altitude Azimuth Distance (km) Brightness Sun altitude
Rises 01:38:55 0° 220° (SW) 3,594 9.8 -33.4°
Reaches altitude 10° 01:41:47 10° 231° (SW) 2,675 8.9 -33.1°
Enters shadow 01:43:12 16° 240° (WSW) 2,277 8.5 -33.0°
Maximum altitude 01:47:00 28° 287° (WNW) 1,718 - -32.7°
Drops below altitude 10° 01:52:15 10° 343° (NNW) 2,679 - -32.3°
Sets 01:55:08 0° 354° (N) 3,600 - -32.0°
